KE5BCK Weather Reports


time (UTC)temp
C
wind
direction
speed
KPH
gust
KPH
rain 1hr
cm
rain 24hr
cm
rain mn
cm
humidity
%
barometer
mb
20260506204552 20 20 4.8 20.9 0.00 0.00 0.00 68 1012.6
20260506203048 20 28 3.2 25.7 0.00 0.00 0.00 69 1012.5
20260506201547 20 34 6.4 22.5 0.00 0.00 0.00 69 1012.3
20260506200147 20 28 8.0 25.7 0.00 0.00 0.00 69 1012.2
20260506194546 21 296 3.2 25.7 0.00 0.00 0.00 70 1012.0
20260506193044 22 349 4.8 19.3 0.00 0.00 0.00 67 1011.9
20260506191551 23 15 3.2 20.9 0.00 0.00 0.00 70 1011.8
20260506190142 23 350 3.2 17.7 0.00 0.00 0.00 69 1012.2
20260506184548 24 32 1.6 16.1 0.00 0.00 0.00 67 1012.0
20260506183050 25 11 3.2 12.9 0.00 0.00 0.00 68 1011.8
20260506181554 24 27 1.6 8.0 0.00 0.00 0.00 68 1011.8
20260506180141 23 82 0.0 12.9 0.00 0.00 0.00 70 1011.7
20260506174646 22 5 4.8 14.5 0.00 0.00 0.00 71 1011.6
20260506173052 21 86 1.6 12.9 0.00 0.00 0.00 73 1011.8
20260506171544 21 73 4.8 17.7 0.00 0.00 0.00 73 1011.8
20260506170141 20 74 1.6 9.7 0.00 0.00 0.00 77 1011.5
20260506164542 18 46 1.6 12.9 0.00 0.00 0.00 81 1012.3
20260506163044 17 65 3.2 12.9 0.00 0.00 0.00 87 1012.3
20260506161540 17 39 6.4 22.5 0.00 0.00 0.00 85 1013.2
20260506160136 17 61 16.1 30.6 0.00 0.00 0.00 85 1013.0
20260506154542 18 64 6.4 22.5 0.00 0.00 0.00 83 1012.8
20260506153038 20 272 3.2 19.3 0.00 0.00 0.00 80 1012.4
20260506151534 23 71 6.4 22.5 0.00 0.00 0.00 72 1011.8
20260506150008 24 198 0.0 6.4 0.00 0.00 0.00 82 1011.3
20260506144502 24 142 1.6 8.0 0.00 0.00 0.00 82 1010.6
20260506143058 24 193 0.0 9.7 0.00 0.00 0.00 83 1010.4
20260506141554 24 143 3.2 11.3 0.00 0.00 0.00 83 1009.9
20260506140000 23 140 3.2 8.0 0.00 0.00 0.00 84 1010.5
20260506134603 23 134 0.0 8.0 0.00 0.00 0.00 85 1009.9
20260506133059 23 136 0.0 6.4 0.00 0.00 0.00 85 1010.0
20260506131550 23 122 3.2 8.0 0.00 0.00 0.00 86 1009.7
20260506130148 23 86 3.2 9.7 0.00 0.00 0.00 86 1009.6
20260506124549 22 136 1.6 11.3 0.00 0.00 0.00 87 1009.4
20260506123047 22 132 1.6 4.8 0.00 0.00 0.00 87 1009.3
20260506121546 22 198 0.0 0.0 0.00 0.00 0.00 88 1009.4
20260506120148 22 198 0.0 0.0 0.00 0.00 0.00 87 1009.4
20260506114547 22 204 0.0 0.0 0.00 0.00 0.00 87 1009.2
20260506113046 22 204 0.0 4.8 0.00 0.00 0.00 87 1009.4
20260506111544 22 186 0.0 0.0 0.00 0.00 0.00 87 1009.3
20260506110146 22 186 0.0 0.0 0.00 0.00 0.00 87 1009.3
20260506104548 22 186 0.0 4.8 0.00 0.00 0.00 86 1009.2
20260506103043 23 173 0.0 3.2 0.00 0.00 0.00 86 1009.0
20260506101542 23 176 0.0 0.0 0.00 0.00 0.00 86 1009.0
20260506100140 23 177 0.0 11.3 0.00 0.00 0.00 86 1008.8
20260506094540 23 199 0.0 6.4 0.00 0.00 0.00 86 1008.5
20260506093042 23 171 3.2 8.0 0.00 0.00 0.00 86 1008.3
20260506091542 23 213 4.8 9.7 0.00 0.00 0.00 86 1008.2
20260506090139 23 172 3.2 14.5 0.00 0.00 0.00 86 1007.9
20260506084638 23 215 1.6 9.7 0.00 0.00 0.00 86 1008.0
20260506083041 23 194 0.0 9.7 0.00 0.00 0.00 86 1008.1
20260506081536 23 175 0.0 12.9 0.00 0.00 0.00 86 1008.0
20260506080134 23 206 3.2 9.7 0.00 0.00 0.00 86 1008.1
20260506073036 23 177 1.6 17.7 0.00 0.00 0.00 85 1008.4
20260506071534 23 130 3.2 14.5 0.00 0.00 0.00 85 1008.6
20260506070133 23 212 3.2 14.5 0.00 0.00 0.00 85 1008.6
20260506061547 23 188 4.8 17.7 0.00 0.00 0.00 84 1008.7
20260506060145 23 200 4.8 14.5 0.00 0.00 0.00 85 1008.5
20260506050144 23 164 1.6 8.0 0.00 0.00 0.00 84 1008.6
20260506044548 23 175 4.8 14.5 0.00 0.00 0.00 84 1008.6
20260506043041 23 124 1.6 11.3 0.00 0.00 0.00 83 1008.7
20260506041550 23 117 4.8 16.1 0.00 0.00 0.00 83 1008.5
20260506040139 23 159 0.0 14.5 0.00 0.00 0.00 83 1008.3
20260506034541 24 184 3.2 12.9 0.00 0.00 0.00 82 1008.1
20260506033039 24 225 3.2 12.9 0.00 0.00 0.00 82 1008.1
20260506031539 24 191 0.0 9.7 0.00 0.00 0.00 81 1008.0
20260506030137 24 164 1.6 11.3 0.00 0.00 0.00 80 1007.8
20260506024537 25 146 1.6 11.3 0.00 0.00 0.00 79 1007.6
20260506023036 25 135 1.6 6.4 0.00 0.00 0.00 78 1007.3
20260506021546 25 155 1.6 8.0 0.00 0.00 0.00 77 1006.9
20260506020134 25 143 1.6 8.0 0.00 0.00 0.00 77 1006.5
20260506014554 25 148 1.6 9.7 0.00 0.00 0.00 77 1006.4
20260506013100 25 145 0.0 8.0 0.00 0.00 0.00 76 1006.4
20260506011620 26 186 1.6 6.4 0.00 0.00 0.00 75 1006.4
20260506010153 26 175 1.6 4.8 0.00 0.00 0.00 74 1006.5
20260506004550 26 156 0.0 3.2 0.00 0.00 0.00 73 1006.6
20260506003050 26 212 1.6 9.7 0.00 0.00 0.00 71 1006.6
20260506001549 27 118 1.6 11.3 0.00 0.00 0.00 71 1006.5
20260506000150 27 166 0.0 3.2 0.00 0.00 0.00 70 1006.6
20260505234548 27 199 3.2 14.5 0.00 0.00 0.00 69 1006.2
20260505233048 27 175 1.6 12.9 0.00 0.00 0.00 68 1006.2
20260505231547 27 211 3.2 11.3 0.00 0.00 0.00 68 1006.1
20260505230146 27 194 3.2 9.7 0.00 0.00 0.00 67 1006.1
20260505224544 28 107 3.2 14.5 0.00 0.00 0.00 66 1006.1
20260505223045 28 146 4.8 14.5 0.00 0.00 0.00 65 1006.0
20260505221551 28 215 6.4 24.1 0.00 0.00 0.00 64 1005.8
20260505220142 28 116 3.2 16.1 0.00 0.00 0.00 65 1005.9
20260505214552 28 136 3.2 12.9 0.00 0.00 0.00 63 1006.3
20260505213045 28 192 3.2 22.5 0.00 0.00 0.00 64 1006.2
20260505211543 28 157 3.2 16.1 0.00 0.00 0.00 64 1006.5
20260505210139 28 181 3.2 19.3 0.00 0.00 0.00 65 1006.6